SCP
3 3 3 3 3 3 3 4 4 3 2 2 1 1 1 1 1 1 1 1 2 2 3 3 3 3 3 2 2 2 2 2 2 3 3 3 3 2 2 2 2 2 2
3 3 3 3 3 3 3 4 4 4 3 2 1 1 1 1 1 1 1 1 1 2 2 3 3 3 3 3 3 3 3 2 2 2 3 3 2 2 2 2 2 2 2
3 3 3 3 3 3 3 4 4 4 3 2 1 1 1 1 1 0 0 1 1 1 2 2 3 3 3 3 3 3 2 2 2 2 2 2 2 2 2 2 2 2 2
3 3 2 2 3 3 3 3 4 3 3 2 1 1 1 1 1 0 0 1 1 1 2 3 3 3 3 3 3 3 2 2 2 2 2 2 2 2 2 2 2 2 2
2 2 2 2 2 2 3 3 3 3 2 2 1 1 1 1 1 0 0 1 1 1 2 2 3 3 3 3 3 3 3 3 3 2 2 2 2 2 2 2 2 2 2
2 2 2 2 1 2 2 2 2 2 3 2 2 2 2 1 1 0 1 1 1 1 1 1 2 2 3 3 3 3 3 3 3 3 3 3 2 2 2 2 2 2 2
1 2 2 1 1 1 2 2 2 2 3 3 2 2 2 1 1 0 0 1 1 1 1 1 1 1 2 2 2 2 3 3 3 3 3 3 3 2 2 2 2 2 2
1 1 2 1 1 1 1 1 2 2 2 2 2 2 2 1 1 0 0 0 0 0 1 1 1 1 1 2 2 2 2 2 3 3 4 4 3 3 2 2 2 2 2
1 1 2 1 1 1 1 1 1 2 2 2 2 1 1 1 1 0 0 0 0 0 0 1 1 1 1 1 2 2 2 2 2 3 4 4 4 4 3 2 2 2 2
2 2 2 2 1 1 0 0 1 2 2 2 1 1 1 1 1 0 0 0 0 0 0 1 1 1 1 1 1 1 1 1 2 3 3 4 4 4 4 3 2 2 2
2 2 2 2 1 1 1 0 1 1 1 1 1 1 1 0 0 0 0 0 0 0 0 1 1 1 1 1 1 1 1 1 1 2 2 3 4 4 4 3 3 2 3
3 3 3 2 2 1 1 1 1 1 1 1 1 1 1 0 0 0 0 0 0 0 0 0 0 0 0 0 0 0 1 1 1 1 1 2 3 4 4 4 3 3 3
3 4 4 3 2 2 1 1 1 1 1 1 1 1 1 0 0 0 0 0 0 0 0 0 0 0 0 0 0 0 0 0 0 0 0 1 1 2 3 3 3 2 2
4 5 5 4 3 2 2 1 1 1 0 0 0 1 1 0 0 0 0 0 0 0 0 0 0 0 0 0 0 0 0 0 0 0 0 0 0 1 1 1 1 2 2
6 6 6 5 4 3 2 2 1 0 0 0 0 0 0 0 0 0 0 0 0 0 0 0 0 0 0 0 0 0 0 0 0 0 0 0 0 0 0 1 1 1 1
7 7 7 6 5 4 3 3 2 1 0 0 0 0 0 0 0 0 0 0 0 0 0 0 0 0 0 0 0 0 0 0 0 0 0 0 0 0 0 0 0 0 0
8 8 7 7 6 5 5 4 3 2 1 0 0 0 0 0 0 0 0 0 0 0 0 0 0 0 0 0 0 0 0 0 0 0 0 0 0 0 0 0 0 0 0
9 8 7 7 7 7 7 6 4 3 2 1 0 0 0 0 0 0 0 0 0 0 0 0 0 0 0 0 0 0 0 0 0 0 0 0 0 0 0 0 0 0 0
8 8 7 8 8 9 9 8 6 5 3 2 1 0 0 0 0 0 0 0 0 0 0 0 0 0 0 0 0 0 0 0 0 0 0 0 0 0 0 0 0 0 0
7 7 7 8 9 10 10 9 8 6 4 2 1 0 0 0 0 0 0 0 0 0 0 0 0 0 0 0 0 0 0 0 0 0 0 0 0 0 0 0 0 0 0
6 6 6 7 9 10 10 9 8 6 5 3 1 0 0 0 0 0 0 0 0 0 0 0 0 0 0 0 0 0 0 0 0 0 0 0 0 0 0 0 0 0 0
5 5 5 6 7 8 7 6 6 6 5 3 2 1 0 0 0 0 0 0 0 0 0 0 0 0 0 0 0 0 0 0 0 0 1 0 0 0 0 0 0 0 0
5 5 5 5 6 5 4 3 3 4 5 4 2 1 0 0 0 0 0 0 0 0 0 0 0 0 0 0 0 0 0 0 0 1 1 1 0 0 0 0 0 0 0
4 4 4 4 4 4 2 1 1 2 3 3 2 1 0 0 0 0 0 0 0 0 0 0 0 0 0 0 0 0 0 1 1 1 1 1 1 0 0 0 0 0 0
2 2 2 2 3 2 1 0 0 1 2 2 1 0 0 0 0 0 0 0 0 0 0 0 0 0 0 0 0 0 1 1 1 0 0 0 1 1 1 1 0 0 0
1 1 1 1 1 1 1 0 0 1 2 2 1 0 0 0 0 0 0 0 0 0 0 0 0 0 0 0 0 0 1 1 1 0 0 0 1 1 1 1 1 0 0
Wind_Speed
2 2 1 1 2 2 2 2 2 2 2 2 2 3 3 3 3 2 2 6 7 8 8 8 8 8 9 9 9 10 10 10 10 10 9 9 9 9 9 9 9 9 9
2 2 2 2 2 2 2 2 2 2 2 2 2 2 3 3 2 2 2 3 6 6 7 7 8 8 8 8 9 9 9 10 10 10 10 9 9 9 9 10 10 9 9
2 2 2 2 2 2 2 2 2 1 1 1 2 2 2 2 2 2 2 2 2 5 6 6 6 7 8 8 9 9 9 9 10 10 10 10 10 10 9 10 10 9 9
3 2 2 2 2 1 2 2 2 1 1 1 1 1 1 1 2 2 2 2 2 2 4 5 6 6 7 7 8 9 9 9 9 10 10 10 10 10 10 9 9 9 9
3 2 2 1 1 1 1 2 1 2 1 1 1 1 1 1 2 2 2 2 2 2 2 4 5 6 7 7 8 9 9 9 9 10 10 10 10 10 9 9 9 9 10
2 2 1 1 1 1 1 1 2 1 1 1 0 1 1 1 1 2 3 2 2 3 3 3 3 4 6 7 7 9 9 9 9 10 11 10 10 10 9 10 9 9 9
1 2 2 2 2 2 2 2 2 2 1 1 1 1 2 1 1 1 1 2 2 3 3 3 2 2 3 7 8 9 9 9 9 9 10 10 10 10 10 10 10 9 9
1 1 2 2 2 1 2 2 2 2 1 1 1 1 2 2 2 1 1 2 2 2 2 3 3 3 3 3 4 8 9 9 10 10 10 9 10 10 11 11 10 10 10
1 1 2 2 2 1 1 1 2 3 1 0 1 2 1 1 2 2 1 1 1 1 2 2 3 3 3 3 3 6 8 8 9 10 9 9 9 10 11 11 11 11 10
0 1 2 2 2 1 1 1 2 2 2 1 0 0 1 2 1 2 2 1 2 2 2 2 3 3 3 3 4 6 7 7 8 9 9 9 9 10 11 11 12 11 11
1 1 1 1 1 1 1 1 2 2 2 2 2 1 1 0 1 2 2 3 2 2 2 3 3 3 3 3 4 5 7 7 8 8 9 9 10 10 10 11 12 12 12
1 1 1 1 1 1 1 1 1 2 1 2 1 1 2 1 2 2 3 3 3 3 2 2 3 3 3 3 5 6 6 7 7 7 8 9 10 10 10 11 12 13 12
1 1 0 1 1 1 1 1 1 1 2 2 2 1 2 2 1 2 2 2 2 2 2 2 2 3 3 2 3 5 5 5 5 6 6 7 8 9 10 10 11 11 12
1 1 0 0 1 1 1 1 1 1 1 1 2 2 1 2 2 2 2 2 2 2 2 3 2 2 2 2 3 4 3 4 4 5 5 6 7 7 8 8 8 9 9
1 0 0 0 0 1 1 2 1 1 1 1 1 1 1 2 2 2 2 3 3 3 3 3 2 2 2 2 3 2 2 3 4 4 5 5 5 6 7 7 7 7 8
0 1 1 1 1 1 1 1 1 0 0 1 1 1 1 2 1 1 2 2 2 3 3 2 3 3 3 2 2 2 3 4 4 4 4 5 5 5 5 6 7 7 7
0 0 0 1 1 1 1 1 0 0 0 1 1 1 2 2 1 1 1 1 2 2 3 3 2 2 2 2 3 2 2 3 3 4 4 5 5 6 6 6 6 6 6
0 1 1 1 0 0 0 0 1 1 1 1 1 1 2 1 1 1 1 2 2 2 3 3 2 2 2 2 2 3 3 3 3 4 5 6 6 7 7 7 7 7 7
0 1 1 1 0 1 1 1 1 1 1 2 2 2 2 2 2 1 1 2 2 2 2 2 2 2 2 2 2 3 3 3 3 4 5 5 6 7 7 8 8 8 8
1 0 0 0 1 1 1 1 1 1 1 2 2 2 2 2 3 2 2 2 2 1 1 1 2 2 2 2 2 2 3 2 3 3 3 4 4 6 6 7 8 9 9
1 1 0 1 1 1 1 1 1 1 1 2 2 2 2 3 3 2 2 2 2 1 1 1 2 2 2 2 2 2 3 3 3 2 2 3 2 3 4 5 7 8 8
1 0 1 1 2 2 2 2 1 1 1 2 2 3 3 3 4 4 3 2 2 3 3 2 2 3 4 4 3 2 2 2 3 2 2 3 2 3 3 3 5 6 7
1 1 1 1 2 3 3 3 2 1 2 2 2 2 3 3 3 3 3 3 3 3 4 4 4 5 4 4 3 3 3 3 4 3 2 3 3 3 3 3 4 5 5
2 2 2 2 2 3 3 3 2 1 2 2 3 3 3 3 3 2 2 2 3 3 3 3 4 5 5 4 4 4 4 4 4 3 2 3 3 3 3 3 3 4 5
2 2 2 2 3 4 3 3 2 1 2 3 3 2 3 3 4 3 2 3 4 4 3 4 5 5 5 5 3 2 2 2 3 3 2 2 3 3 3 3 2 2 3
2 2 2 2 3 3 4 3 2 1 2 3 3 3 3 4 4 3 2 3 4 4 3 3 3 3 3 3 4 4 3 3 3 3 2 2 2 2 2 2 2 2 2
Wind_Direction
209 217 227 224 224 213 208 199 211 223 236 240 233 225 228 225 224 231 242 241 235 233 234 236 236 237 235 231 227 224 222 218 212 211 211 210 208 207 206 206 208 209 210
198 209 222 229 229 215 208 203 204 213 228 226 239 233 230 226 224 229 231 241 237 227 231 237 240 237 236 233 229 224 222 218 215 212 211 211 212 213 211 210 212 212 214
197 203 211 229 228 210 190 189 180 192 214 218 241 240 229 223 222 231 231 228 233 230 235 240 242 242 240 236 232 228 226 224 222 218 214 213 214 214 215 214 214 214 215
192 194 204 224 217 183 173 181 166 165 211 245 257 275 259 236 230 232 231 227 232 239 243 243 243 243 243 241 233 228 226 225 224 220 218 219 218 215 214 214 217 217 219
197 189 195 204 193 170 179 186 162 167 182 231 250 270 277 251 237 226 227 232 233 238 243 254 253 248 245 246 239 232 228 225 224 222 221 220 221 218 214 213 217 220 219
194 178 187 183 160 150 162 181 168 154 170 199 257 322 301 269 241 224 235 239 238 244 244 244 254 261 252 249 244 239 236 232 229 226 221 219 219 219 217 217 218 220 220
186 175 180 159 148 156 169 179 152 136 129 110 82 357 335 317 284 237 243 241 246 252 246 237 235 241 256 250 248 244 241 238 236 232 225 221 217 217 218 220 218 220 222
157 179 158 155 150 139 135 155 153 143 152 125 127 93 346 341 346 327 268 241 253 252 252 249 241 238 242 242 246 243 243 241 238 235 231 225 220 216 217 218 220 221 222
162 165 148 146 149 153 171 178 162 152 166 159 134 148 154 246 309 326 307 283 277 263 266 261 250 247 240 238 242 244 243 245 241 240 237 231 225 219 218 219 221 222 222
98 144 129 148 153 163 180 191 155 161 157 166 156 168 186 179 187 306 320 312 296 273 271 271 266 255 246 240 239 239 242 243 245 244 242 239 229 224 220 221 223 223 224
31 67 126 143 151 172 184 163 156 156 157 168 173 177 181 256 209 208 277 307 316 287 274 267 261 259 255 247 241 239 242 244 246 246 244 242 235 231 226 226 227 226 225
25 32 91 138 161 163 170 165 160 146 157 164 173 170 175 190 209 206 235 268 285 291 290 271 259 264 262 251 248 247 246 248 250 245 241 243 241 235 233 232 231 230 229
2 327 73 125 149 169 165 146 140 158 164 165 190 200 203 214 204 206 221 249 265 286 294 280 262 267 263 247 253 253 251 250 254 249 246 246 247 241 239 239 237 236 233
252 273 109 144 153 140 128 126 129 150 156 184 207 210 219 231 214 208 205 210 261 276 276 279 288 274 274 264 260 259 262 264 259 253 249 245 242 238 235 235 237 238 235
255 205 77 96 101 122 133 128 125 151 160 201 222 224 230 243 231 227 219 206 208 250 269 269 277 293 293 283 283 270 263 272 270 260 254 244 238 237 235 233 235 238 235
333 40 41 77 92 95 97 103 120 162 139 258 241 238 253 254 249 235 228 227 217 218 249 255 255 279 292 292 292 279 273 280 279 272 258 247 242 239 238 234 232 234 234
93 56 320 122 122 119 105 115 172 186 197 282 289 264 276 258 250 248 237 223 222 214 236 267 264 275 282 292 305 300 281 272 276 270 257 251 248 246 244 240 234 234 235
188 189 149 120 114 65 124 199 251 261 243 269 281 289 298 298 276 256 236 227 225 218 219 252 274 278 271 280 292 300 299 287 272 273 261 254 249 247 243 240 237 234 233
141 128 135 152 241 268 270 267 249 257 261 261 262 257 269 279 283 273 242 239 242 231 218 228 268 279 277 283 292 293 295 296 286 280 268 256 248 245 243 242 238 233 232
142 178 193 230 253 253 261 268 259 261 268 273 268 257 255 256 267 266 250 240 231 225 213 226 261 280 279 282 273 277 288 286 285 290 281 270 255 248 249 248 242 235 231
201 203 244 302 291 266 260 251 250 251 262 286 295 284 269 277 274 265 260 237 207 206 208 229 259 276 281 278 268 267 271 284 282 274 272 271 258 256 258 256 247 237 230
220 190 246 271 291 288 274 249 237 249 254 266 290 299 296 299 302 297 292 258 205 204 218 227 246 255 265 261 264 263 266 281 284 271 262 278 265 263 266 260 251 241 232
208 222 253 266 276 284 277 266 256 242 254 261 268 282 293 306 312 305 308 304 277 258 227 218 237 250 256 252 246 258 251 248 260 271 260 278 278 269 270 270 257 242 232
216 235 249 260 270 282 275 260 260 256 265 267 260 258 265 288 296 290 293 299 291 283 260 241 240 248 249 244 229 238 247 256 268 268 240 266 280 277 283 278 259 234 232
229 241 245 254 266 284 282 266 237 245 268 276 273 267 261 274 289 284 266 284 294 293 281 254 249 258 260 254 237 230 241 244 274 277 225 239 266 280 287 277 260 231 238
228 241 254 254 256 273 285 266 224 216 255 276 284 281 268 272 291 275 240 254 275 283 295 305 302 294 281 266 238 226 231 240 260 272 233 220 252 266 285 277 274 269 257